User: anonymous   Login
Location: Unspecified
(0.0000°N, 0.0000°E)
Time: 11:03:02
(UTC+00:00)
Language:

Snapshot - Orbit

View from above orbital plane
View from above orbital plane
View from above satellite
View from above satellite

Ground track
Ground track

The orbit data is extracted from the following two-line orbital elements,

1  1314U 65027A   21162.88580171 -.00000026  00000-0 -12584-3 0  9992
2  1314  90.2784 324.3053 0031118  28.2642  85.9338 12.91762513394996
Epoch (UTC): 11 June 2021 21:15:33
Eccentricity: 0.0031118
inclination: 90.2784°
perigee height: 1270 km
apogee height: 1318 km
right ascension of ascending node: 324.3053°
argument of perigee: 28.2642°
revolutions per day: 12.91762513
mean anomaly at epoch: 85.9338°
orbit number at epoch: 39499

The dashed part of the orbit path shows where the satellite is in the earth's shadow,  

DLR